Location: Little Chesterford
(52.0500°N, 0.1833°E)
Time: 20:14:18
(UTC+00:00)

Ariane Rocket - Pass Details

Date: 26 September 2023
Orbit: 757 x 769 km, 98.6° (Epoch: 08 December)

Event Time Altitude Azimuth Distance (km) Brightness Sun altitude
Exits shadow 21:57:26 32° 291° (WNW) 1,311 4.5 -34.1°
Drops below altitude 10° 22:01:00 10° 330° (NNW) 2,319 6.3 -34.4°
Sets 22:03:31 0° 339° (NNW) 3,252 7.2 -34.6°
